{"data":{"norad_id":63434,"intl_designator":"2025-069B","name":"STARLINK-33710","alt_names":[],"object_type":"PAYLOAD","status":"ACTIVE","operator":null,"country":"US","launch_date":"2025-04-04","launch_site_code":"AFWTR","launch_vehicle":null,"mission":null,"orbit_class":"UNKNOWN","rcs_meters":null,"size_class":null,"mass_kg":null,"dimensions":null,"purposes":["comms"],"wikipedia_slug":null,"has_3d_model":false,"image_url":null,"decayed_at":null,"tle_current":{"epoch":"2026-09-20T10:10:22.380096Z","epoch_age_seconds":165463,"freshness":"FRESH","line1":"1 63434U 25069B   26263.42387014  .00012276  00000+0  37375-3 0  9995","line2":"2 63434  53.1602 308.4094 0001351  82.3191 277.7965 15.34410443 83352","mean_motion":15.34410443,"eccentricity":0.0001351,"inclination_deg":53.1602,"raan_deg":308.4094,"arg_perigee_deg":82.3191,"mean_anomaly_deg":277.7965,"bstar":0.00037375,"rev_number":8335,"period_min":93.847119365571,"perigee_km":461.74800826325,"apogee_km":463.59639490952,"semimajor_km":6840.8092015864,"source":"CELESTRAK","updated_at":"2026-09-21T09:00:34.983912Z"}}}